• MPC Preparation (Info)

  • MPEC 2003-D33 : 2003 DW10

    The following Minor Planet Electronic Circular may be linked-to from your own Web pages, but must not otherwise be redistributed electronically.

    A form allowing access to any MPEC is at the bottom of this page.


    Read MPEC 2003-D32 Read MPEC 2003-D34


    M.P.E.C. 2003-D33                                Issued 2003 Feb. 27, 20:41 UT
    
         The Minor Planet Electronic Circulars contain information on unusual
             minor planets and routine data on comets.  They are published
       on behalf of Commission 20 of the International Astronomical Union by the
              Minor Planet Center, Smithsonian Astrophysical Observatory,
                              Cambridge, MA 02138, U.S.A.
    
                 Prepared using the Tamkin Foundation Computer Network
    
                                  MPC@CFA.HARVARD.EDU
              URL http://cfa-www.harvard.edu/iau/mpc.html  ISSN 1523-6714
    
                                       2003 DW10
    
    Observations:
         K03D10W* C2003 02 26.28160 08 40 29.30 +28 39 59.4          19.4        704
         K03D10W  C2003 02 26.29415 08 40 21.17 +28 40 19.4          19.7        704
         K03D10W  C2003 02 26.30716 08 40 12.95 +28 40 40.6          19.7        704
         K03D10W  C2003 02 26.32039 08 40 04.47 +28 40 59.9          19.6        704
         K03D10W  C2003 02 26.97995 08 33 46.83 +29 03 53.6                      246
         K03D10W  C2003 02 26.98051 08 33 46.27 +29 03 54.5                      246
         K03D10W  C2003 02 26.98145 08 33 45.60 +29 03 56.7                      246
         K03D10W  C2003 02 26.98424 08 33 43.44 +29 04 02.0                      246
         K03D10W  C2003 02 26.98634 08 33 41.79 +29 04 06.2                      246
         K03D10W  C2003 02 26.98752 08 33 40.86 +29 04 08.0                      246
         K03D10W  C2003 02 26.98887 08 33 39.81 +29 04 10.6                      246
         K03D10W  C2003 02 27.03873 08 33 00.36 +29 05 39.0          18.3 R      118
         K03D10W  C2003 02 27.04068 08 32 58.83 +29 05 42.6                      118
         K03D10W  C2003 02 27.04265 08 32 57.40 +29 05 45.9                      118
         K03D10W  C2003 02 27.04459 08 32 55.86 +29 05 48.1                      118
         K03D10W  C2003 02 27.04666 08 32 54.23 +29 05 52.3                      118
         K03D10W  C2003 02 27.12593 08 32 30.54 +29 11 38.6          18.6 R      734
         K03D10W  C2003 02 27.12948 08 32 27.23 +29 11 50.1          18.7 R      734
         K03D10W  C2003 02 27.83100 08 22 28.71 +29 45 49.4                      246
         K03D10W  C2003 02 27.83178 08 22 27.83 +29 45 52.8                      246
         K03D10W  C2003 02 27.83214 08 22 27.43 +29 45 54.1          17.5 R      246
         K03D10W  C2003 02 27.83292 08 22 26.53 +29 45 56.7                      246
         K03D10W  C2003 02 27.83399 08 22 25.24 +29 46 00.7                      246
         K03D10W  C2003 02 27.83454 08 22 24.52 +29 46 03.0                      246
    
    Observer details:
    118 Modra.  Observer S. Gajdos.  0.6-m f/5.5 reflector + CCD.
    246 Klet Observatory-KLENOT.  Observers M. Tichy, M. Kocer.  1.06-m KLENOT
        Telescope + CCD.
    704 Lincoln Laboratory ETS, New Mexico.  Observers M. Blythe, F. Shelly,
        M. Bezpalko, R. Huber, L. Manguso, S. Adams, D. Torres, T. Brothers,
        S. Partridge.  Measurers J. Stuart, R. Sayer, J. Evans, P. Hopman.  1.0-m
        f/2.15 reflector + CCD.
    734 Farpoint Observatory.  Observer G. Hug.  0.30-m Schmidt-Cassegrain + CCD.
    
    Orbital elements:
    2003 DW10
    Epoch 2003 June 10.0 TT = JDT 2452800.5                 MPC
    M  37.09574              (2000.0)            P               Q
    n   0.56695728     Peri.  220.87271     -0.91922968     +0.39354922
    a   1.4457809      Node   342.29229     -0.35052680     -0.83150170
    e   0.3604669      Incl.    2.19569     -0.17929793     -0.39207644
    P   1.74           H   25.9           G   0.15           U   7
    Residuals in seconds of arc
    030226 704  0.7+  0.5-    030226 246  0.7+  0.3+    030227 734  0.1-  0.3-
    030226 704  0.6-  0.8-    030226 246  0.6+  0.2-    030227 734 (3.0-  0.3+)
    030226 704  0.3+  0.2+    030226 246  0.6+  0.2-    030227 246  0.8-  0.4-
    030226 704  0.8-  0.1-    030227 118  0.0   0.4+    030227 246  0.1-  0.1+
    030226 246  1.2+  0.2+    030227 118  0.6-  0.6+    030227 246  0.3+  0.0
    030226 246  0.4-  0.0     030227 118  0.2+  0.6+    030227 246  0.7+  0.3-
    030226 246  0.5+  0.3+    030227 118  0.7-  0.6-    030227 246  0.5+  0.3-
    030226 246  0.8+  0.2+    030227 118  1.6-  0.1+    030227 246  0.3-  0.0
    
    Ephemeris:
    2003 DW10                a,e,i = 1.45, 0.36, 2                   q = 0.9246
    Date    TT    R. A. (2000) Decl.     Delta      r     Elong.  Phase     V
    2003 02 20    09 04.02   +26 51.8    0.051    1.036   157.6    21.3    20.5
    2003 02 21    09 02.11   +27 02.3    0.046    1.031   156.3    22.7    20.4
    2003 02 22    08 59.84   +27 14.1    0.042    1.027   154.8    24.2    20.2
    2003 02 23    08 57.06   +27 28.0    0.037    1.023   153.3    25.8    20.0
    2003 02 24    08 53.57   +27 44.6    0.033    1.018   151.6    27.6    19.7
    2003 02 25    08 49.03   +28 05.2    0.028    1.014   149.6    29.6    19.5
    2003 02 26    08 42.82   +28 31.7    0.024    1.010   147.3    32.0    19.2
    2003 02 27    08 33.78   +29 07.7    0.019    1.006   144.3    35.1    18.8
    2003 02 28    08 19.36   +29 59.1    0.015    1.002   140.1    39.3    18.3
    2003 03 01    07 52.83   +31 15.8    0.011    0.998   133.4    46.1    17.8
    
    2003 03 02.0  06 51.08   +32 49.5    0.0067   0.994   119.4    60.2    17.2
    2003 03 02.1  06 40.54   +32 54.0    0.0063   0.994   117.1    62.5    17.1
    2003 03 02.2  06 28.69   +32 55.1    0.0059   0.994   114.6    65.1    17.1
    2003 03 02.3  06 15.35   +32 51.2    0.0056   0.993   111.7    68.0    17.0
    2003 03 02.4  06 00.32   +32 40.6    0.0053   0.993   108.5    71.2    17.0
    2003 03 02.5  05 43.43   +32 20.4    0.0050   0.992   104.8    74.9    17.0
    2003 03 02.6  05 24.50   +31 47.6    0.0047   0.992   100.7    79.0    17.0
    2003 03 02.7  05 03.45   +30 58.1    0.0044   0.992    96.1    83.7    17.0
    2003 03 02.8  04 40.33   +29 47.7    0.0042   0.991    90.9    88.9    17.1
    2003 03 02.9  04 15.33   +28 12.3    0.0040   0.991    85.1    94.6    17.2
    2003 03 03.0  03 48.87   +26 08.9    0.0038   0.990    78.9   100.9    17.4
    2003 03 03.1  03 21.55   +23 37.1    0.0037   0.990    72.1   107.7    17.7
    2003 03 03.2  02 54.12   +20 39.8    0.0036   0.990    65.1   114.7    18.1
    2003 03 03.3  02 27.34   +17 23.5    0.0036   0.989    57.9   121.9    18.7
    2003 03 03.4  02 01.86   +13 57.1    0.0037   0.989    50.9   129.0    19.3
    2003 03 03.5  01 38.15   +10 30.1    0.0038   0.989    44.1   135.7    20.1
    2003 03 03.6  01 16.48   +07 10.8    0.0039   0.988    37.8   142.0    21.0
    2003 03 03.7  00 56.92   +04 05.0    0.0041   0.988    32.1   147.8    22.0
    2003 03 03.8  00 39.43   +01 15.9    0.0044   0.988    26.9   153.0    23.1
    2003 03 03.9  00 23.85   -01 15.3    0.0046   0.987    22.4   157.5    24.4
    2003 03 04.0  00 10.01   -03 29.1    0.0049   0.987    18.4   161.5    25.8
    
    Brian G. Marsden             (C) Copyright 2003 MPC           M.P.E.C. 2003-D33
    

    Read MPEC 2003-D32 Read MPEC 2003-D34


    MPEC number:

    Enter an MPEC number in one of the following forms:

    • 1997-B01 (the full form)
    • J97B01 (the packed version of the full form)
    • B01 (the abbreviated form)